EWG777 LFML-LQSA

Flight info

Callsign EWG777
Flight time 1h 23m
Altitude 35000
Route NASIK P856 RAPED DCT TORTU/N0429F360 DCT GINAR DCT ROSUV DCT EDUGI/N0433F370 DCT VRANA
Aircraft A320/M-SDE3FGHIRWY/LB1

Departure

Time 2026-04-21 19:16
Airport Marseille Provence Airport (LFML)

Arrival

Time 2026-04-21 20:39
Airport Sarajevo International Airport (LQSA)
Time Latitude Longitude Altitude Speed Heading
2026-04-21 18:54 43.44332 5.21173 28 ft 0 kts 317°
2026-04-21 19:09 43.44326 5.21180 28 ft 4 kts 316°
2026-04-21 19:09 43.44308 5.21207 28 ft 4 kts 310°
2026-04-21 19:09 43.44291 5.21236 29 ft 4 kts 303°
2026-04-21 19:10 43.44277 5.21268 29 ft 4 kts 295°
2026-04-21 19:10 43.44268 5.21303 30 ft 4 kts 281°
2026-04-21 19:10 43.44266 5.21338 30 ft 4 kts 251°
2026-04-21 19:10 43.44269 5.21349 30 ft 1 kts 239°
2026-04-21 19:12 43.44268 5.21346 30 ft 1 kts 239°
2026-04-21 19:12 43.44260 5.21328 30 ft 3 kts 239°
2026-04-21 19:13 43.44246 5.21292 30 ft 5 kts 241°
2026-04-21 19:13 43.44225 5.21239 30 ft 7 kts 241°
2026-04-21 19:13 43.44198 5.21169 30 ft 9 kts 244°
2026-04-21 19:13 43.44208 5.21081 30 ft 11 kts 323°
2026-04-21 19:14 43.44264 5.20989 28 ft 14 kts 306°
2026-04-21 19:14 43.44322 5.20862 26 ft 17 kts 301°
2026-04-21 19:14 43.44405 5.20733 24 ft 19 kts 311°
2026-04-21 19:14 43.44501 5.20592 22 ft 22 kts 316°
2026-04-21 19:15 43.44614 5.20431 20 ft 25 kts 314°
2026-04-21 19:15 43.44667 5.20282 18 ft 16 kts 240°
2026-04-21 19:15 43.44575 5.20223 19 ft 16 kts 162°
2026-04-21 19:15 43.44501 5.20325 22 ft 16 kts 134°
2026-04-21 19:16 43.44292 5.20617 27 ft 76 kts 135°
2026-04-21 19:16 43.43788 5.21330 42 ft 128 kts 133°
2026-04-21 19:16 43.43065 5.22354 139 ft 160 kts 135°
2026-04-21 19:16 43.42415 5.23512 718 ft 154 kts 118°
2026-04-21 19:17 43.42090 5.26406 1542 ft 155 kts 77°
2026-04-21 19:17 43.42289 5.27892 1854 ft 159 kts 77°
2026-04-21 19:17 43.42488 5.29404 2255 ft 165 kts 77°
2026-04-21 19:18 43.42710 5.31065 2445 ft 188 kts 77°
2026-04-21 19:18 43.42959 5.32945 2678 ft 211 kts 77°
2026-04-21 19:18 43.43189 5.35024 2949 ft 232 kts 88°
2026-04-21 19:18 43.43099 5.37351 3357 ft 251 kts 92°
2026-04-21 19:19 43.42978 5.39776 4066 ft 256 kts 92°
2026-04-21 19:19 43.42855 5.42212 4849 ft 258 kts 92°
2026-04-21 19:19 43.42729 5.44691 5620 ft 261 kts 92°
2026-04-21 19:19 43.42604 5.47204 6385 ft 264 kts 92°
2026-04-21 19:20 43.42481 5.49740 7085 ft 269 kts 92°
2026-04-21 19:20 43.42352 5.52331 7772 ft 274 kts 92°
2026-04-21 19:20 43.42221 5.54967 8457 ft 279 kts 91°
2026-04-21 19:20 43.42090 5.57650 9133 ft 284 kts 91°
2026-04-21 19:21 43.41957 5.60385 9786 ft 290 kts 91°
2026-04-21 19:21 43.41818 5.63181 9970 ft 293 kts 92°
2026-04-21 19:21 43.41674 5.65966 9914 ft 292 kts 92°
2026-04-21 19:21 43.41530 5.68753 9920 ft 292 kts 92°
2026-04-21 19:22 43.41387 5.71537 9950 ft 293 kts 91°
2026-04-21 19:22 43.41356 5.74353 10439 ft 297 kts 84°
2026-04-21 19:22 43.41469 5.77271 10811 ft 316 kts 84°
2026-04-21 19:22 43.41582 5.80390 11038 ft 340 kts 84°
2026-04-21 19:23 43.41700 5.83757 11298 ft 359 kts 85°
2026-04-21 19:23 43.41816 5.87249 11915 ft 367 kts 85°
2026-04-21 19:23 43.41930 5.90776 12643 ft 372 kts 85°
2026-04-21 19:23 43.42045 5.94322 13391 ft 376 kts 85°
2026-04-21 19:24 43.42165 5.97976 14090 ft 381 kts 85°
2026-04-21 19:24 43.42244 6.00413 14550 ft 383 kts 85°
2026-04-21 19:24 43.42405 6.05306 15440 ft 388 kts 85°
2026-04-21 19:24 43.42527 6.09006 16108 ft 391 kts 85°
2026-04-21 19:25 43.42649 6.12765 16769 ft 394 kts 85°
2026-04-21 19:25 43.42771 6.16546 17444 ft 397 kts 85°
2026-04-21 19:25 43.42851 6.19084 17890 ft 400 kts 85°
2026-04-21 19:25 43.42970 6.22908 18511 ft 403 kts 85°
2026-04-21 19:26 43.43032 6.26823 19110 ft 408 kts 90°
2026-04-21 19:26 43.42738 6.30737 19718 ft 413 kts 95°
2026-04-21 19:26 43.42386 6.34632 20352 ft 417 kts 95°
2026-04-21 19:26 43.42026 6.38617 20979 ft 421 kts 95°
2026-04-21 19:27 43.41660 6.42650 21587 ft 425 kts 95°
2026-04-21 19:27 43.41291 6.46690 22192 ft 429 kts 95°
2026-04-21 19:27 43.40917 6.50786 22768 ft 433 kts 95°
2026-04-21 19:27 43.40540 6.54924 23378 ft 437 kts 95°
2026-04-21 19:28 43.40159 6.59091 23923 ft 442 kts 95°
2026-04-21 19:28 43.39773 6.63295 24433 ft 445 kts 95°
2026-04-21 19:28 43.39381 6.67538 24930 ft 449 kts 95°
2026-04-21 19:28 43.38982 6.71814 25423 ft 453 kts 95°
2026-04-21 19:29 43.38579 6.76123 25904 ft 456 kts 95°
2026-04-21 19:29 43.38171 6.80466 26384 ft 460 kts 95°
2026-04-21 19:29 43.37765 6.84796 26865 ft 463 kts 94°
2026-04-21 19:29 43.37403 6.89238 27308 ft 466 kts 90°
2026-04-21 19:30 43.37406 6.93707 27751 ft 467 kts 85°
2026-04-21 19:30 43.37481 6.98210 28203 ft 471 kts 85°
2026-04-21 19:30 43.37552 7.02663 28634 ft 474 kts 85°
2026-04-21 19:30 43.37621 7.07206 29053 ft 477 kts 85°
2026-04-21 19:31 43.37689 7.11784 29461 ft 481 kts 85°
2026-04-21 19:31 43.37753 7.16395 29883 ft 483 kts 85°
2026-04-21 19:31 43.37813 7.21004 30366 ft 482 kts 85°
2026-04-21 19:31 43.37872 7.25610 30818 ft 482 kts 85°
2026-04-21 19:32 43.37931 7.30254 31259 ft 482 kts 85°
2026-04-21 19:32 43.37986 7.34858 31694 ft 482 kts 85°
2026-04-21 19:32 43.38041 7.39472 32123 ft 482 kts 85°
2026-04-21 19:32 43.38096 7.44080 32573 ft 483 kts 85°
2026-04-21 19:33 43.38149 7.48641 33006 ft 483 kts 85°
2026-04-21 19:33 43.38201 7.53254 33454 ft 483 kts 85°
2026-04-21 19:33 43.38250 7.57923 33909 ft 483 kts 85°
2026-04-21 19:33 43.38296 7.62501 34287 ft 484 kts 85°
2026-04-21 19:34 43.38341 7.67106 34678 ft 483 kts 86°
2026-04-21 19:34 43.38384 7.71730 34890 ft 484 kts 86°
2026-04-21 19:34 43.38468 7.80989 34939 ft 483 kts 86°
2026-04-21 19:35 43.38564 7.94817 34942 ft 482 kts 86°
2026-04-21 19:36 43.38628 8.03994 34939 ft 484 kts 86°
2026-04-21 19:36 43.38683 8.13304 35307 ft 485 kts 86°
2026-04-21 19:36 43.38707 8.17918 35704 ft 484 kts 86°
2026-04-21 19:37 43.38730 8.22514 36096 ft 483 kts 86°
2026-04-21 19:37 43.38751 8.27153 36473 ft 482 kts 86°
2026-04-21 19:37 43.38770 8.31747 36824 ft 481 kts 86°
2026-04-21 19:37 43.38788 8.36386 36951 ft 484 kts 86°
2026-04-21 19:38 43.38803 8.40983 36952 ft 488 kts 86°
2026-04-21 19:38 43.38825 8.50343 36956 ft 489 kts 87°
2026-04-21 19:39 43.38841 8.59677 36953 ft 490 kts 87°
2026-04-21 19:39 43.39128 8.68978 36957 ft 484 kts 76°
2026-04-21 19:40 43.40252 8.78148 36963 ft 485 kts 76°
2026-04-21 19:40 43.41372 8.87298 36960 ft 486 kts 76°
2026-04-21 19:41 43.42479 8.96454 36950 ft 473 kts 76°
2026-04-21 19:41 43.43524 9.05203 36955 ft 465 kts 76°
2026-04-21 19:42 43.44566 9.13950 36954 ft 463 kts 76°
2026-04-21 19:42 43.45604 9.22685 36955 ft 458 kts 76°
2026-04-21 19:43 43.46631 9.31320 36958 ft 457 kts 76°
2026-04-21 19:43 43.47646 9.39968 36965 ft 458 kts 76°
2026-04-21 19:44 43.48648 9.48613 36985 ft 459 kts 76°
2026-04-21 19:44 43.49649 9.57287 36981 ft 459 kts 76°
2026-04-21 19:45 43.50643 9.65971 36983 ft 459 kts 76°
2026-04-21 19:45 43.51639 9.74670 36981 ft 459 kts 76°
2026-04-21 19:46 43.52624 9.83368 36983 ft 459 kts 76°
2026-04-21 19:46 43.53593 9.92017 36981 ft 460 kts 76°
2026-04-21 19:47 43.54568 10.00768 36980 ft 460 kts 76°
2026-04-21 19:47 43.55534 10.09487 36980 ft 460 kts 76°
2026-04-21 19:48 43.56497 10.18183 36967 ft 460 kts 76°
2026-04-21 19:48 43.57453 10.26898 36956 ft 460 kts 76°
2026-04-21 19:49 43.58396 10.35619 36948 ft 459 kts 76°
2026-04-21 19:49 43.59335 10.44363 36945 ft 460 kts 76°
2026-04-21 19:50 43.60095 10.51507 36945 ft 461 kts 76°
2026-04-21 19:50 43.61176 10.61692 36968 ft 461 kts 77°
2026-04-21 19:51 43.62090 10.70444 36977 ft 460 kts 77°
2026-04-21 19:51 43.62994 10.79188 36976 ft 460 kts 77°
2026-04-21 19:52 43.63705 10.87979 36985 ft 462 kts 81°
2026-04-21 19:52 43.64049 10.96808 36986 ft 463 kts 83°
2026-04-21 19:53 43.64337 11.05682 36988 ft 463 kts 83°
2026-04-21 19:53 43.64688 11.14542 36983 ft 462 kts 82°
2026-04-21 19:54 43.65085 11.23412 36988 ft 462 kts 82°
2026-04-21 19:54 43.65478 11.32231 37007 ft 462 kts 82°
2026-04-21 19:55 43.65847 11.41096 37025 ft 462 kts 82°
2026-04-21 19:55 43.66200 11.49953 37016 ft 462 kts 82°
2026-04-21 19:56 43.66549 11.58819 37004 ft 462 kts 82°
2026-04-21 19:56 43.66892 11.67695 37014 ft 461 kts 82°
2026-04-21 19:57 43.67227 11.76536 37021 ft 461 kts 83°
2026-04-21 19:57 43.67557 11.85373 37019 ft 461 kts 83°
2026-04-21 19:58 43.67878 11.94196 37033 ft 461 kts 83°
2026-04-21 19:58 43.68193 12.03062 37021 ft 461 kts 83°
2026-04-21 19:59 43.68555 12.11912 37043 ft 460 kts 82°
2026-04-21 19:59 43.69101 12.20723 37038 ft 460 kts 81°
2026-04-21 20:00 43.69683 12.29498 37041 ft 460 kts 80°
2026-04-21 20:00 43.70217 12.38273 37029 ft 460 kts 81°
2026-04-21 20:01 43.70713 12.47112 37044 ft 460 kts 82°
2026-04-21 20:01 43.71200 12.55962 37045 ft 460 kts 82°
2026-04-21 20:02 43.71608 12.63294 37039 ft 460 kts 82°
2026-04-21 20:02 43.72177 12.73545 37072 ft 460 kts 82°
2026-04-21 20:03 43.72659 12.82373 37053 ft 460 kts 82°
2026-04-21 20:03 43.73134 12.91165 37046 ft 460 kts 82°
2026-04-21 20:04 43.73599 12.99976 37043 ft 460 kts 82°
2026-04-21 20:04 43.74056 13.08821 37041 ft 460 kts 82°
2026-04-21 20:05 43.74501 13.17634 37053 ft 460 kts 82°
2026-04-21 20:05 43.74942 13.26452 37047 ft 460 kts 82°
2026-04-21 20:06 43.75378 13.35258 37042 ft 461 kts 82°
2026-04-21 20:06 43.75810 13.44119 37042 ft 461 kts 82°
2026-04-21 20:07 43.76243 13.52951 37048 ft 461 kts 82°
2026-04-21 20:07 43.76594 13.60338 37046 ft 461 kts 83°
2026-04-21 20:08 43.77068 13.70667 37045 ft 461 kts 83°
2026-04-21 20:08 43.77469 13.79493 37042 ft 461 kts 83°
2026-04-21 20:09 43.77873 13.88428 37034 ft 473 kts 83°
2026-04-21 20:09 43.78297 13.97698 37027 ft 488 kts 83°
2026-04-21 20:10 43.78703 14.07089 37027 ft 492 kts 83°
2026-04-21 20:10 43.79083 14.16512 37024 ft 493 kts 84°
2026-04-21 20:11 43.79257 14.24442 37023 ft 493 kts 86°
2026-04-21 20:11 43.79237 14.33952 37024 ft 494 kts 88°
2026-04-21 20:12 43.79178 14.43462 37027 ft 494 kts 88°
2026-04-21 20:12 43.79165 14.52940 37025 ft 494 kts 87°
2026-04-21 20:13 43.79178 14.62498 37023 ft 494 kts 87°
2026-04-21 20:13 43.79180 14.71981 37025 ft 494 kts 87°
2026-04-21 20:14 43.79166 14.81452 37028 ft 494 kts 88°
2026-04-21 20:14 43.79138 14.90984 37030 ft 494 kts 88°
2026-04-21 20:15 43.79107 15.00508 37036 ft 495 kts 88°
2026-04-21 20:15 43.79071 15.10026 37023 ft 495 kts 88°
2026-04-21 20:16 43.79023 15.19548 37023 ft 495 kts 88°
2026-04-21 20:16 43.78962 15.29084 37027 ft 495 kts 88°
2026-04-21 20:17 43.78900 15.38562 37015 ft 495 kts 88°
2026-04-21 20:17 43.78836 15.48093 37012 ft 496 kts 88°
2026-04-21 20:18 43.78751 15.57644 37014 ft 496 kts 88°
2026-04-21 20:18 43.78662 15.67170 36861 ft 496 kts 88°
2026-04-21 20:18 43.78614 15.71954 36505 ft 491 kts 88°
2026-04-21 20:19 43.78563 15.76659 36392 ft 481 kts 88°
2026-04-21 20:19 43.78512 15.81248 36048 ft 476 kts 88°
2026-04-21 20:19 43.78464 15.85836 35542 ft 476 kts 88°
2026-04-21 20:19 43.78417 15.90420 35039 ft 476 kts 88°
2026-04-21 20:20 43.78366 15.94950 34533 ft 476 kts 88°
2026-04-21 20:20 43.78313 15.99531 34021 ft 477 kts 88°
2026-04-21 20:20 43.78257 16.04121 33435 ft 477 kts 88°
2026-04-21 20:20 43.78199 16.08703 32928 ft 475 kts 88°
2026-04-21 20:21 43.78140 16.13277 32398 ft 475 kts 88°
2026-04-21 20:21 43.78076 16.17848 31875 ft 474 kts 88°
2026-04-21 20:21 43.78005 16.22408 31362 ft 474 kts 88°
2026-04-21 20:21 43.77930 16.26965 30848 ft 474 kts 88°
2026-04-21 20:22 43.77858 16.31530 30338 ft 474 kts 88°
2026-04-21 20:22 43.77714 16.40636 29313 ft 472 kts 88°
2026-04-21 20:22 43.77647 16.45179 28837 ft 470 kts 88°
2026-04-21 20:23 43.77579 16.49691 28366 ft 468 kts 88°
2026-04-21 20:23 43.77507 16.54174 27892 ft 465 kts 88°
2026-04-21 20:23 43.77429 16.58648 27420 ft 464 kts 88°
2026-04-21 20:23 43.77348 16.63097 26969 ft 463 kts 89°
2026-04-21 20:24 43.77265 16.67553 26477 ft 463 kts 89°
2026-04-21 20:24 43.77185 16.71981 25981 ft 462 kts 89°
2026-04-21 20:24 43.77101 16.76414 25488 ft 462 kts 89°
2026-04-21 20:24 43.77012 16.80854 24996 ft 462 kts 89°
2026-04-21 20:25 43.76922 16.85300 24455 ft 461 kts 89°
2026-04-21 20:25 43.76831 16.89736 23941 ft 461 kts 90°
2026-04-21 20:25 43.76740 16.94165 23380 ft 461 kts 90°
2026-04-21 20:25 43.76653 16.98590 22829 ft 459 kts 90°
2026-04-21 20:26 43.76564 17.02936 22301 ft 456 kts 90°
2026-04-21 20:26 43.76470 17.07320 21763 ft 454 kts 90°
2026-04-21 20:26 43.76374 17.11689 21235 ft 453 kts 90°
2026-04-21 20:26 43.76277 17.16036 20698 ft 451 kts 91°
2026-04-21 20:27 43.76177 17.20369 20168 ft 449 kts 90°
2026-04-21 20:27 43.76077 17.24670 19643 ft 447 kts 91°
2026-04-21 20:27 43.75976 17.28969 19110 ft 446 kts 91°
2026-04-21 20:27 43.75873 17.33251 18578 ft 445 kts 91°
2026-04-21 20:28 43.75770 17.37497 18010 ft 444 kts 91°
2026-04-21 20:28 43.75664 17.41746 17477 ft 440 kts 91°
2026-04-21 20:28 43.75559 17.45959 16945 ft 435 kts 90°
2026-04-21 20:28 43.75837 17.50076 16438 ft 426 kts 73°
2026-04-21 20:29 43.76937 17.53808 15958 ft 414 kts 55°
2026-04-21 20:29 43.78706 17.56842 15520 ft 399 kts 38°
2026-04-21 20:29 43.80880 17.59122 15084 ft 387 kts 30°
2026-04-21 20:29 43.83069 17.61243 14653 ft 381 kts 31°
2026-04-21 20:30 43.85219 17.63328 14226 ft 374 kts 31°
2026-04-21 20:30 43.87325 17.65373 13793 ft 367 kts 31°
2026-04-21 20:30 43.89395 17.67384 13345 ft 360 kts 31°
2026-04-21 20:30 43.91418 17.69347 12914 ft 352 kts 32°
2026-04-21 20:31 43.93401 17.71272 12488 ft 346 kts 32°
2026-04-21 20:31 43.95363 17.73178 12065 ft 341 kts 32°
2026-04-21 20:31 43.97290 17.75053 11655 ft 336 kts 33°
2026-04-21 20:31 43.99187 17.76906 11231 ft 332 kts 33°
2026-04-21 20:32 44.01070 17.78746 10801 ft 328 kts 34°
2026-04-21 20:32 44.02923 17.80559 10386 ft 323 kts 35°
2026-04-21 20:32 44.04506 17.82726 10149 ft 316 kts 57°
2026-04-21 20:32 44.05298 17.85507 10009 ft 309 kts 78°
2026-04-21 20:33 44.05196 17.88484 9509 ft 314 kts 105°
2026-04-21 20:33 44.04491 17.91356 9091 ft 313 kts 108°
2026-04-21 20:33 44.03764 17.94192 8691 ft 310 kts 108°
2026-04-21 20:33 44.03042 17.97010 8280 ft 308 kts 107°
2026-04-21 20:34 44.02134 17.99697 7878 ft 308 kts 125°
2026-04-21 20:34 44.00565 18.01679 7409 ft 311 kts 150°
2026-04-21 20:34 43.98555 18.02782 7008 ft 310 kts 160°
2026-04-21 20:34 43.96517 18.03736 6606 ft 308 kts 160°
2026-04-21 20:35 43.94478 18.04691 6200 ft 306 kts 158°
2026-04-21 20:35 43.92727 18.06157 5805 ft 287 kts 131°
2026-04-21 20:35 43.91672 18.08373 5469 ft 268 kts 115°
2026-04-21 20:35 43.90839 18.10587 5136 ft 249 kts 114°
2026-04-21 20:36 43.90064 18.12694 4807 ft 238 kts 114°
2026-04-21 20:36 43.89351 18.14656 4549 ft 224 kts 115°
2026-04-21 20:36 43.88655 18.16541 4269 ft 213 kts 116°
2026-04-21 20:36 43.88001 18.18298 3973 ft 200 kts 116°
2026-04-21 20:37 43.87402 18.19906 3716 ft 175 kts 116°
2026-04-21 20:37 43.86870 18.21334 3502 ft 159 kts 116°
2026-04-21 20:37 43.86377 18.22653 3292 ft 152 kts 115°
2026-04-21 20:37 43.85891 18.23957 3097 ft 150 kts 114°
2026-04-21 20:38 43.85418 18.25226 2871 ft 148 kts 114°
2026-04-21 20:38 43.84950 18.26479 2653 ft 146 kts 115°
2026-04-21 20:38 43.84484 18.27727 2431 ft 147 kts 116°
2026-04-21 20:38 43.84007 18.29004 2190 ft 148 kts 116°
2026-04-21 20:39 43.83539 18.30259 1974 ft 149 kts 115°
2026-04-21 20:39 43.83063 18.31561 1739 ft 152 kts 117°
2026-04-21 20:39 43.82602 18.32773 1667 ft 115 kts 119°
2026-04-21 20:39 43.82419 18.33194 1684 ft 0 kts 348°
2026-04-21 20:40 43.82420 18.33195 1680 ft 0 kts 346°